Terminal Aerodrome Forecast
Issued by NWS

Home | Current Version | Previous Version | Text Only | Print | Product List | Glossary On
Versions: 1 2 3 4 5 6 7 8 9 10 11 12 13 14
000
FTUS45 KRIW 200500
TAFPNA
TAF
KPNA 200531Z 2006/2106 30006KT P6SM BKN250
     FM201200 29005KT P6SM SCT100 BKN250
     FM202000 29012G20KT P6SM SCT100 BKN250
     FM210100 30007KT P6SM SCT250
      AMD LTD TO CLD VIS AND WIND=

USA.gov is the U.S. government's official web portal to all federal, state and local government web resources and services.